Theta_e
312 314 313 313 313 312 313 312 312 312 314 315 309 308 310 310 305 302 316 320 319 322 323 325 327 329 330 331 335 336 338 340 340 338 337 338 337 338 338 340 343 344 346 349 351 352 353 353 352 354 356 358 361 363 365 365 365 367 368 368 368 368 367 365 366 369 368 366 364 362 362 363 361 359 359 360 359 361 363 362 359 360 360 359 360 361 362
311 314 314 313 310 308 311 312 314 315 314 314 315 313 313 312 311 311 312 316 322 324 326 327 329 332 333 334 338 338 336 336 335 337 337 336 337 337 339 342 344 347 347 348 351 352 353 353 353 351 353 357 359 360 362 364 366 368 369 369 369 368 367 367 368 370 370 369 368 367 365 365 365 363 361 362 360 361 362 362 363 364 363 363 362 361 361
308 312 311 312 311 312 308 310 314 315 316 315 316 317 316 316 314 312 312 318 320 326 330 329 331 332 333 334 333 334 334 334 336 336 337 338 339 341 343 343 344 348 349 350 350 351 352 352 353 354 356 357 358 359 359 362 366 369 370 369 368 368 368 369 369 370 371 372 372 369 368 367 367 367 364 365 363 363 363 363 363 365 365 362 361 360 359
303 308 310 311 311 311 312 312 314 314 314 313 313 314 318 315 312 314 316 318 319 326 331 330 330 329 329 329 331 333 334 334 333 335 334 334 336 337 340 343 345 346 346 348 348 351 353 354 353 353 355 356 357 357 359 361 362 364 365 365 366 367 368 369 368 367 366 367 368 370 369 368 368 368 368 366 366 367 365 363 366 364 362 362 363 362 360
300 307 312 309 307 308 304 310 312 314 314 315 314 315 317 318 316 311 309 314 328 328 329 326 326 327 327 327 329 331 333 335 334 335 335 333 334 335 337 338 340 342 343 343 346 350 352 352 354 357 358 356 357 359 359 360 362 362 362 361 363 364 366 365 366 366 365 364 364 364 367 369 369 367 367 367 366 365 362 364 362 363 364 362 363 363 361
301 304 307 306 302 295 299 315 318 316 314 313 312 310 310 313 315 312 317 326 328 328 327 325 325 325 325 327 329 332 332 332 333 334 335 334 335 335 336 337 340 341 342 342 344 348 349 352 354 355 357 357 358 360 360 362 361 362 363 363 363 362 363 364 364 361 361 363 362 363 364 367 368 366 365 363 364 365 364 365 365 364 363 363 364 365 364
301 306 304 299 294 295 311 319 320 319 318 317 315 315 316 316 318 316 319 325 326 325 326 325 325 326 328 329 329 330 332 333 332 331 332 333 332 332 334 335 335 337 340 342 344 347 348 348 352 353 354 356 357 359 360 358 359 361 362 362 361 361 361 362 361 359 361 362 362 362 363 365 366 366 365 364 364 364 364 365 366 367 365 364 365 365 363
304 300 299 291 296 308 314 315 317 318 318 317 316 315 318 318 318 317 317 320 324 325 324 326 327 326 327 327 328 329 330 331 331 330 330 331 331 330 332 333 334 336 337 339 341 344 347 348 350 349 351 355 357 357 358 357 357 358 358 358 358 360 359 361 361 360 361 361 361 360 361 357 360 361 363 365 363 364 364 365 365 367 368 367 366 367 368
297 299 299 299 307 307 310 312 313 315 314 315 313 308 311 319 318 317 316 322 324 325 327 328 327 328 327 323 323 327 328 329 330 331 332 332 332 332 332 334 333 336 338 339 341 343 345 348 349 350 351 351 353 355 356 356 358 357 358 357 358 358 358 360 359 360 360 360 360 359 359 359 360 361 362 363 363 365 364 365 363 364 365 363 364 363 363
304 299 298 300 299 296 305 314 315 318 318 317 317 316 313 320 319 322 319 321 326 326 326 327 328 328 323 318 318 325 327 329 330 332 332 333 332 332 333 334 336 336 338 340 342 343 344 345 346 347 348 348 348 348 349 353 356 356 357 356 357 357 358 357 357 356 359 359 356 355 355 354 357 360 361 362 362 363 362 362 362 361 361 360 360 358 357
301 300 296 297 295 301 311 313 315 317 319 317 318 314 309 320 318 319 319 319 325 327 327 328 328 325 317 314 318 324 327 328 329 329 331 332 332 332 332 333 333 335 336 337 338 340 341 342 345 347 348 347 347 346 351 352 353 354 354 356 356 354 355 357 355 355 355 354 354 353 353 353 354 354 355 356 357 357 356 357 357 358 357 358 356 357 355
301 300 297 297 303 305 312 315 316 317 319 317 314 299 302 318 319 320 321 319 321 323 327 327 326 324 316 315 319 326 327 328 329 330 329 329 330 332 333 333 333 334 335 335 334 335 337 339 343 345 344 342 342 341 339 342 343 346 350 350 350 348 350 351 351 351 351 351 351 350 350 351 353 354 354 354 354 355 354 353 352 353 354 354 353 351 350
301 299 299 301 305 313 316 316 317 318 318 314 302 296 308 320 321 322 323 322 323 325 325 327 321 324 326 325 327 328 328 327 328 330 330 329 330 330 332 332 334 332 332 332 332 334 335 337 338 338 337 336 334 333 332 334 335 339 342 345 346 350 350 349 349 347 349 350 350 351 351 348 350 353 354 354 354 354 353 352 351 351 349 351 345 342 342
299 301 298 300 306 315 319 318 317 319 313 301 300 316 323 324 322 324 325 323 325 325 324 323 323 324 326 327 327 327 327 327 328 328 328 328 329 331 333 333 332 332 331 332 333 334 337 336 336 336 336 334 332 331 329 329 332 336 340 344 346 345 346 346 347 349 349 351 351 350 349 349 348 349 350 352 352 354 354 351 349 348 348 343 338 336 337
303 303 299 297 292 311 319 317 315 317 308 312 320 323 325 327 325 325 326 326 325 326 321 323 324 324 325 326 327 327 327 327 328 328 328 327 327 327 328 328 331 331 329 328 328 329 332 335 337 336 335 333 333 331 328 330 333 336 338 339 340 341 342 343 345 346 346 346 346 347 347 347 346 346 346 347 349 352 348 347 346 343 339 335 332 332 333
300 298 297 296 312 318 320 318 313 314 323 325 326 325 322 326 326 325 325 327 328 325 323 322 323 322 322 323 325 326 326 326 328 330 330 330 329 328 328 327 328 329 327 326 326 328 329 333 335 335 333 331 331 330 330 333 335 336 336 336 336 335 334 334 334 335 335 338 341 344 344 344 344 342 344 346 347 346 345 343 339 334 332 332 331 331 330
306 306 313 318 321 321 322 324 324 326 327 329 329 327 326 325 325 328 326 326 328 327 325 324 324 320 320 319 321 321 321 321 322 325 328 330 330 328 327 326 327 327 327 326 325 326 328 331 334 334 333 331 331 329 333 336 335 336 337 336 336 335 335 336 336 335 334 333 334 337 340 343 342 343 342 342 339 339 339 338 337 332 332 331 328 328 328
318 320 322 322 322 323 323 326 327 327 327 329 330 328 326 327 327 329 327 327 327 327 327 324 322 320 319 318 318 318 319 320 322 323 323 325 328 328 327 326 326 325 326 328 327 327 327 328 330 332 333 333 331 331 333 334 335 336 336 336 334 334 335 336 336 336 334 332 333 335 338 340 340 340 339 339 338 337 337 336 335 333 331 331 329 326 326
310 305 320 320 321 322 325 324 327 328 330 329 330 330 329 329 329 329 329 329 329 329 328 325 322 322 323 321 321 321 321 319 319 319 320 323 323 323 324 326 327 325 324 324 326 327 327 328 329 329 329 329 331 335 335 333 333 334 334 334 335 335 335 335 336 335 332 331 330 331 332 332 333 334 337 338 339 338 337 335 333 333 331 329 328 327 326
312 315 319 322 324 325 326 327 326 326 329 330 331 331 331 332 332 332 331 332 330 331 327 325 323 322 323 322 321 320 320 321 322 322 322 324 325 327 328 328 327 326 326 326 326 326 325 327 329 330 330 331 332 332 332 335 337 337 336 333 331 332 333 335 335 335 335 332 332 330 328 325 324 325 329 332 330 329 331 334 333 332 332 330 329 328 328
316 320 321 321 323 324 325 327 329 330 330 330 329 330 330 331 330 330 331 332 330 330 328 326 325 324 326 327 326 324 324 324 325 326 326 326 326 326 328 329 329 328 328 328 328 326 326 328 330 331 331 330 331 333 333 336 338 337 336 336 335 332 332 334 333 334 333 332 332 329 329 323 317 314 317 321 327 327 323 323 326 335 334 336 336 333 331
308 310 316 320 313 313 320 326 328 329 330 330 329 329 329 329 329 329 328 328 329 329 328 327 326 325 325 327 328 326 325 325 326 327 327 326 326 327 329 329 330 330 330 330 330 329 329 331 331 331 331 332 332 332 335 336 337 337 337 336 335 334 335 334 334 333 332 331 332 331 329 326 323 316 306 299 305 322 322 313 306 302 309 333 332 332 329
308 316 322 324 324 321 323 327 330 330 331 331 329 328 329 330 331 330 329 326 327 327 327 328 327 327 327 327 328 326 326 328 328 327 327 326 326 327 328 329 330 330 330 330 331 330 330 330 330 331 332 332 333 332 334 335 336 336 336 334 334 333 334 334 333 333 332 332 335 334 334 333 331 328 324 315 297 297 304 305 301 298 298 301 306 314 325
319 322 324 324 322 320 324 328 330 330 332 331 330 331 331 331 330 331 330 329 328 327 326 327 328 329 329 329 328 327 327 329 330 329 328 329 329 328 328 329 330 330 329 330 330 331 332 332 330 331 330 331 333 333 334 333 335 337 336 334 332 331 331 332 333 334 332 333 333 333 333 333 332 330 328 326 320 300 295 299 299 296 295 296 296 299 301
317 325 325 324 324 325 328 329 330 331 332 332 329 330 332 331 331 331 329 328 329 328 328 328 329 330 329 329 329 328 328 328 330 330 330 329 329 328 328 328 328 328 329 330 331 332 332 332 331 331 330 331 333 332 335 334 334 335 335 335 334 333 333 332 331 332 331 332 332 331 331 331 331 330 326 324 324 322 315 297 295 295 295 294 293 294 295
327 326 327 328 327 327 328 327 327 329 329 331 331 331 331 331 331 331 330 331 329 330 329 329 328 329 329 328 328 328 328 328 328 329 328 326 326 327 328 328 328 330 331 331 331 331 331 332 332 331 330 330 332 332 331 334 335 336 335 334 335 334 333 333 332 331 330 331 331 332 332 332 331 331 328 327 325 324 322 321 320 309 299 295 295 296 293
329 328 327 322 320 321 324 322 322 327 329 329 329 330 332 332 332 331 331 332 331 331 331 331 331 330 331 330 329 328 328 329 330 328 328 327 327 329 328 330 330 330 330 330 330 330 330 331 331 331 331 332 333 333 333 333 334 335 335 334 331 331 332 332 332 331 331 331 330 331 331 331 330 329 330 329 328 326 324 323 322 321 321 320 305 294 310
326 326 326 319 318 319 323 325 328 329 328 328 329 329 330 330 330 329 328 329 330 330 330 331 330 330 329 330 330 328 328 328 328 328 328 328 327 329 330 331 331 331 331 331 331 331 330 331 331 331 331 333 333 333 330 331 331 331 332 333 333 331 331 331 331 333 332 333 333 332 331 332 332 329 328 328 327 327 325 326 325 323 323 323 322 306 297
325 326 329 327 326 327 329 329 328 328 327 328 329 329 329 326 325 325 325 326 328 328 328 329 330 329 328 328 328 327 327 327 328 328 330 331 332 330 332 332 331 330 330 330 330 332 331 331 330 330 331 333 332 332 330 329 329 328 328 328 330 331 330 331 332 332 332 332 332 332 330 330 331 330 330 329 328 327 327 326 326 326 326 325 323 321 315
326 329 329 328 329 329 328 326 325 326 326 327 326 325 325 325 323 324 325 325 326 325 326 329 328 327 327 326 326 326 325 325 327 328 328 329 330 331 331 331 330 330 329 329 329 330 330 330 330 330 331 332 332 333 330 331 331 331 330 329 328 329 332 333 332 332 331 330 327 329 330 329 331 329 328 329 328 327 327 326 326 325 325 324 324 322 323
328 327 328 329 328 326 325 326 326 325 325 326 325 323 323 324 322 322 323 324 325 324 326 326 326 326 327 326 327 327 327 326 327 327 327 329 329 330 330 330 326 325 326 327 329 329 330 329 330 330 332 333 333 333 332 330 330 330 330 331 328 324 324 327 327 329 329 327 327 327 326 326 324 325 326 326 325 325 326 325 326 325 325 325 325 323 324
325 325 325 326 324 324 325 326 325 324 324 325 323 321 322 321 320 319 318 317 318 319 320 320 321 321 322 323 323 323 323 324 324 325 325 325 326 326 327 327 328 326 328 328 329 329 329 329 329 331 333 333 333 333 332 331 331 330 328 325 329 329 325 325 327 327 328 327 326 325 324 325 323 323 323 323 323 325 325 325 324 324 324 324 324 325 326
323 322 322 323 323 323 324 325 324 324 324 323 323 323 322 321 318 315 313 314 314 316 315 316 316 317 317 318 317 317 317 317 318 318 319 320 322 322 323 323 324 325 324 324 325 325 325 326 327 330 332 332 332 332 330 331 330 328 328 328 327 327 325 324 324 325 326 325 325 325 325 325 325 325 324 323 323 324 325 324 323 324 324 324 325 325 327
324 323 323 325 324 323 322 322 324 324 324 323 323 322 320 318 316 314 314 316 314 314 314 315 317 319 319 319 319 318 318 317 316 317 318 319 321 322 323 322 323 322 322 322 322 322 323 323 325 326 327 327 330 329 330 330 330 329 329 328 327 325 325 326 325 325 325 325 325 326 327 326 326 324 324 324 324 323 323 323 323 323 322 323 324 326 316
328 328 329 327 328 327 326 324 324 323 322 321 321 320 319 317 315 315 316 315 316 316 318 318 320 320 319 319 318 318 317 315 314 315 316 317 319 321 323 322 323 323 322 322 321 322 323 325 327 326 325 325 324 325 328 329 329 328 329 328 327 326 326 326 325 324 324 323 325 324 324 324 323 323 323 323 324 323 322 322 322 322 322 322 322 324 324
327 328 328 328 328 327 326 325 324 325 324 323 321 320 319 317 316 316 317 317 318 319 319 320 320 320 319 319 318 318 317 316 316 316 317 318 320 320 320 320 321 321 321 321 322 324 324 327 328 328 328 323 323 325 327 327 328 327 329 327 326 326 326 325 325 325 324 324 323 324 324 323 324 323 323 323 322 323 321 321 321 321 320 320 321 321 324
330 331 330 329 329 328 327 326 326 325 325 324 322 322 320 318 317 318 319 319 320 320 320 320 319 319 318 319 319 319 318 317 316 316 317 318 318 317 318 319 319 320 320 318 322 325 326 328 325 327 326 324 323 328 330 327 328 325 324 324 324 324 324 323 324 324 323 325 324 324 323 323 324 324 323 323 322 321 321 321 321 320 320 320 319 319 320
330 330 330 329 329 328 328 328 327 326 325 324 324 323 322 319 319 319 321 322 321 320 321 320 319 319 320 320 320 318 318 317 317 317 318 317 317 316 316 315 315 315 314 316 323 323 326 326 324 327 326 325 326 327 328 325 325 327 323 321 320 320 320 321 320 321 320 322 322 322 321 320 320 320 322 321 321 321 321 321 320 321 320 320 320 320 320
328 329 330 329 329 329 330 329 328 327 325 325 323 324 324 322 321 323 322 320 321 321 320 319 320 320 319 318 317 318 317 318 317 317 317 317 317 316 316 317 318 320 323 324 324 323 324 323 324 324 324 324 326 325 325 322 323 325 322 322 321 320 318 318 318 317 318 319 318 318 319 318 318 318 319 320 321 320 319 320 321 320 321 320 319 319 321
328 328 329 328 327 329 330 329 327 327 327 326 325 324 324 323 323 321 320 320 322 321 320 321 320 317 318 318 318 317 317 316 317 317 317 317 316 315 315 316 318 321 322 317 320 322 319 320 322 321 321 322 321 321 323 319 320 320 321 320 319 318 318 318 317 316 317 319 317 316 317 316 318 318 316 316 316 318 318 318 319 319 318 318 318 319 318
327 327 328 328 328 328 328 327 327 327 327 326 327 327 326 324 322 321 320 321 321 321 322 321 319 319 319 319 317 316 317 316 316 317 317 316 314 312 311 314 318 319 319 319 320 320 318 317 318 318 319 320 322 318 318 320 319 318 318 317 317 317 317 317 317 316 316 316 316 316 315 316 315 316 316 317 318 317 317 317 317 317 318 317 318 319 318
328 329 328 327 327 327 327 327 327 326 327 327 327 327 326 324 322 321 321 321 321 321 322 321 321 321 320 318 316 316 315 316 315 316 316 315 314 313 311 313 317 319 322 318 318 317 319 319 318 316 320 320 320 319 317 317 316 317 316 316 317 317 316 317 316 316 318 317 317 316 316 317 315 316 315 316 316 317 316 317 317 317 318 317 317 319 318
329 327 327 326 327 327 326 326 325 326 326 327 328 327 326 324 323 323 322 322 321 321 321 322 319 317 317 316 315 315 315 316 316 316 316 316 317 317 316 316 317 320 319 320 320 318 317 318 317 318 317 319 319 318 318 319 318 317 317 315 317 317 317 317 317 316 316 317 316 316 316 316 316 315 314 315 315 316 315 316 315 317 317 318 318 318 319
329 326 326 326 326 326 327 326 325 325 324 325 326 327 326 324 324 323 322 321 321 321 321 320 317 317 316 316 315 314 314 315 314 315 313 314 314 316 318 316 316 321 319 318 317 316 317 317 317 317 315 315 315 316 318 318 317 317 317 316 316 316 315 315 314 315 315 315 315 316 315 315 314 314 315 315 315 315 316 314 314 315 316 316 316 316 316
328 327 327 326 327 327 325 324 324 324 324 325 325 325 324 325 324 323 321 321 321 320 320 319 317 316 315 315 315 316 316 315 316 315 312 312 311 312 317 315 317 318 318 316 317 316 316 317 317 314 314 313 313 315 318 316 315 314 315 314 315 314 315 314 314 315 315 316 316 314 315 315 315 315 315 315 315 314 314 314 314 315 315 315 316 315 316
329 328 328 325 326 326 326 326 326 326 325 323 322 322 323 324 323 322 322 322 321 320 320 319 318 317 317 316 317 317 317 315 315 316 316 316 313 315 317 316 317 317 316 315 315 315 316 312 313 312 311 312 313 315 316 315 315 316 313 313 314 314 313 314 315 316 314 314 315 315 315 315 314 314 315 315 315 315 314 314 314 315 314 314 315 314 315
329 329 329 328 328 328 328 327 327 325 323 321 319 319 321 323 322 322 322 323 322 320 320 319 318 318 319 318 316 315 313 313 314 316 317 317 316 315 317 318 317 316 316 316 315 316 315 314 311 310 310 310 311 315 315 315 315 314 313 313 313 313 313 312 313 314 313 314 313 314 313 312 314 314 313 314 314 315 313 313 313 313 314 313 314 312 313
328 328 327 328 327 328 328 326 324 321 320 320 320 320 321 322 322 321 322 321 320 320 319 319 318 318 318 318 318 316 316 314 311 312 316 316 316 317 317 318 316 316 313 312 311 310 309 310 308 308 308 309 312 314 313 314 313 313 314 313 312 311 311 311 312 312 311 311 312 313 312 313 312 314 312 312 313 312 312 312 313 313 313 312 312 312 313
328 328 328 328 328 327 325 323 321 320 320 321 321 320 321 321 321 320 320 319 319 318 317 317 317 317 318 317 317 315 317 317 317 314 315 316 315 316 318 316 315 314 314 315 313 312 309 309 308 308 308 310 314 314 313 313 313 313 312 312 312 310 312 312 311 311 311 311 311 310 311 311 311 312 311 311 311 312 311 311 312 312 311 311 311 313 311
328 328 327 325 325 323 323 321 320 320 322 322 321 321 321 320 318 318 318 317 317 316 316 316 316 316 316 315 315 316 318 317 318 318 316 317 316 317 315 315 317 313 313 312 312 311 310 309 309 309 310 314 314 313 313 311 312 312 312 311 311 311 311 310 308 307 310 311 311 310 310 311 311 310 310 310 310 311 310 310 310 309 307 309 310 310 310
326 325 325 325 324 325 326 324 323 324 323 322 323 321 320 318 317 317 317 316 317 315 314 314 315 315 315 314 314 315 316 316 316 316 316 316 317 315 314 315 315 313 310 309 310 311 312 313 313 310 310 311 313 312 311 312 312 311 309 311 311 311 311 310 310 310 311 310 311 311 311 311 311 312 311 310 309 310 310 310 310 310 310 311 310 310 310
326 326 326 325 325 325 326 325 326 326 325 324 323 320 319 318 317 316 317 316 316 314 314 314 312 314 314 314 314 315 315 315 315 315 315 314 315 315 314 314 314 312 309 311 311 312 312 310 307 306 307 310 311 311 307 305 309 311 311 311 310 311 311 311 311 310 311 310 310 311 310 310 310 310 310 310 309 309 309 310 309 310 309 309 310 310 310
Wind_Speed
6 7 3 2 2 1 3 4 3 2 2 4 8 11 9 3 6 7 5 7 0 4 5 3 4 4 6 6 6 6 5 4 2 6 11 12 14 11 10 9 9 9 9 7 8 9 8 9 10 10 9 10 10 10 10 11 10 11 11 11 11 11 11 11 10 10 10 10 10 10 9 8 9 9 8 8 8 7 8 8 7 8 8 8 7 7 7
2 3 3 2 2 1 4 1 3 3 1 1 3 5 11 6 9 12 9 7 2 5 4 5 5 4 6 6 6 7 8 8 7 2 8 9 10 11 10 8 6 6 7 7 6 5 5 6 7 7 8 8 8 8 9 10 11 11 11 11 11 11 11 11 10 9 8 8 8 9 9 9 9 9 8 8 8 8 8 8 7 6 6 6 7 7 7
5 4 4 3 1 3 0 2 2 4 5 2 3 3 4 7 10 13 14 7 5 4 3 5 7 7 7 7 8 8 9 7 7 9 11 10 11 10 9 8 7 6 5 4 3 3 4 5 6 6 6 6 7 8 8 8 8 8 9 10 10 11 11 10 9 8 7 7 7 8 9 8 8 8 8 7 7 7 7 7 7 6 6 8 8 8 8
2 7 6 5 4 2 3 4 3 5 4 2 5 2 5 3 5 10 11 10 6 6 5 9 10 11 12 11 9 8 7 8 8 7 8 9 9 10 9 10 9 9 8 7 6 5 3 2 3 5 6 6 7 8 8 9 9 8 8 7 8 9 9 8 8 9 9 8 8 7 7 8 8 8 8 8 7 7 7 8 7 7 8 8 8 8 8
5 4 7 6 7 1 6 2 4 3 3 3 2 1 3 3 7 6 9 8 7 9 8 10 10 11 11 11 9 9 10 8 7 7 8 7 7 9 8 8 9 8 7 7 6 6 5 2 2 3 3 5 7 7 8 8 8 9 10 10 9 8 7 8 8 7 8 9 8 8 7 7 7 7 8 8 8 8 8 8 7 7 8 8 8 8 8
3 8 6 7 6 7 1 6 5 5 3 3 2 3 5 7 4 3 12 2 8 10 9 11 11 11 11 10 11 10 8 8 9 9 9 8 6 6 7 7 7 7 7 6 4 4 3 3 3 2 2 5 6 7 8 8 10 9 9 9 9 9 8 7 6 6 8 8 8 8 7 6 6 7 7 8 8 7 7 7 7 7 7 7 7 7 7
2 2 6 6 10 2 1 4 2 2 3 1 2 3 4 4 6 9 9 7 9 11 12 12 14 14 13 13 13 12 11 10 9 9 9 9 9 6 6 7 6 6 6 5 4 3 4 4 2 2 1 3 5 6 7 8 9 9 9 9 9 8 8 8 7 7 7 8 7 7 7 6 5 6 6 6 7 6 6 6 6 5 6 6 6 6 7
1 5 3 8 4 3 2 3 1 4 2 1 3 2 2 3 4 3 6 9 8 10 13 9 11 12 12 13 13 12 12 10 10 9 8 8 8 9 8 7 6 5 6 6 5 4 2 3 3 1 1 3 3 5 6 7 8 9 8 9 9 8 8 7 7 7 5 5 5 5 5 6 6 6 5 6 6 5 5 4 4 4 3 4 4 3 3
6 4 5 3 4 5 3 5 3 1 1 2 2 2 2 2 3 2 3 7 9 10 10 10 9 9 10 11 10 10 9 9 10 10 8 8 8 8 7 6 5 6 7 6 5 3 2 2 3 2 1 1 3 3 2 4 6 7 7 7 6 7 6 7 8 8 7 6 5 4 4 5 4 4 4 5 4 3 4 4 4 3 2 1 1 1 2
4 5 4 3 4 6 3 3 8 4 6 7 5 3 1 1 3 4 8 2 8 11 8 9 9 7 8 8 7 8 7 8 9 10 10 9 9 8 8 7 6 8 7 5 4 4 4 4 4 3 1 0 1 1 2 1 1 4 5 5 6 7 7 8 7 6 6 5 5 5 5 4 4 2 2 2 2 2 3 2 3 3 3 3 2 2 3
4 5 6 3 4 4 4 6 5 7 6 6 4 1 1 4 4 6 9 10 1 5 2 6 8 6 5 5 5 5 6 8 8 9 10 9 9 10 10 10 10 9 7 8 8 9 9 8 5 4 4 4 2 1 1 1 3 3 3 4 5 5 2 3 5 5 4 5 5 4 3 3 2 2 3 2 2 3 3 3 2 2 2 2 2 2 1
5 5 5 4 2 3 6 6 4 5 5 6 3 2 3 3 6 4 4 7 9 5 6 3 3 2 6 6 4 5 8 8 9 9 10 10 10 11 11 11 10 10 10 10 11 12 11 10 9 9 8 8 8 7 8 7 5 4 4 6 7 6 6 3 1 2 4 4 3 3 5 3 2 1 2 2 3 4 3 2 2 1 1 1 3 3 4
2 2 5 3 3 5 6 6 4 4 5 4 0 2 3 1 5 2 2 3 6 7 7 7 8 10 8 9 8 8 9 9 10 10 10 10 10 11 11 11 11 11 11 11 11 10 8 8 9 9 9 10 9 9 7 7 7 5 3 3 3 3 4 3 4 3 3 3 4 4 3 5 3 2 0 2 4 5 4 4 3 4 3 4 7 6 6
5 4 6 2 5 3 4 5 5 7 6 3 1 5 6 8 7 5 1 1 4 6 10 9 8 9 10 10 10 11 10 11 10 10 11 11 12 11 12 12 11 12 13 13 13 12 11 10 9 8 8 10 8 7 8 7 5 4 6 4 3 4 5 4 3 3 3 3 2 3 4 4 4 4 2 1 1 3 3 4 5 5 6 7 7 7 6
3 5 6 2 2 4 1 9 8 3 3 2 1 4 6 5 6 8 7 5 5 10 10 10 8 9 10 10 11 11 11 11 11 12 11 11 12 12 11 11 13 13 13 13 13 12 11 12 10 10 12 12 10 10 10 8 5 6 8 8 8 7 7 6 6 7 7 5 4 3 3 3 4 4 3 2 4 4 7 6 6 7 8 7 7 7 7
4 4 4 1 3 2 4 4 1 5 3 4 4 3 5 5 5 6 7 8 9 11 11 10 9 10 10 10 11 11 11 11 11 12 13 13 13 13 12 12 12 14 13 13 13 13 11 12 13 11 11 12 11 12 12 7 7 8 9 9 9 9 10 9 9 8 8 7 6 4 4 5 4 4 3 3 5 6 7 6 7 8 7 7 7 7 7
4 2 4 4 2 1 2 1 5 6 7 4 3 4 5 6 6 6 8 11 11 11 11 11 10 9 9 11 10 10 10 10 10 10 11 13 13 12 12 12 12 12 12 13 13 13 12 12 11 10 10 11 13 15 10 8 9 9 9 8 8 10 10 9 9 8 8 8 8 7 5 4 5 6 6 6 7 7 8 8 9 9 5 6 7 7 6
4 5 4 4 4 4 6 5 4 8 7 6 7 9 8 6 8 8 10 12 12 11 10 10 9 9 11 11 11 11 10 10 9 9 10 10 10 10 10 10 11 11 12 12 13 13 12 12 10 9 9 11 14 10 8 9 9 8 9 9 9 11 11 10 9 8 9 9 9 9 8 5 7 6 6 6 7 7 8 8 8 8 8 7 7 6 7
4 2 3 3 5 4 4 6 5 6 7 8 7 9 9 9 9 10 10 11 12 12 11 10 10 11 10 11 10 10 9 10 10 10 10 10 10 10 10 10 9 9 10 11 12 12 12 11 10 10 11 11 11 9 7 7 8 8 8 8 8 7 8 8 8 8 9 8 8 9 8 8 9 8 7 6 6 7 7 7 7 7 7 7 6 6 7
2 4 6 4 4 3 4 4 6 7 9 9 9 8 9 10 10 10 10 11 11 11 12 11 12 12 11 11 10 10 10 10 9 10 10 10 10 10 10 10 10 11 11 10 10 10 10 9 10 10 11 11 10 8 6 6 5 6 5 7 7 8 9 7 6 7 7 7 6 6 6 7 7 6 7 7 6 6 5 4 7 7 6 6 5 5 5
5 5 5 6 5 5 5 4 4 6 8 10 10 10 10 11 11 11 10 9 11 11 12 12 12 12 11 10 10 11 9 9 9 9 9 10 10 10 10 10 10 10 10 11 11 11 10 9 10 10 10 10 10 9 7 6 6 6 7 7 6 8 8 6 6 5 6 7 7 8 6 6 8 8 6 5 4 5 6 4 4 3 6 5 4 4 5
6 5 8 11 6 6 6 6 8 9 9 10 11 11 10 10 10 9 10 10 11 12 12 11 11 12 11 11 10 11 10 10 10 10 9 9 10 9 9 9 10 10 10 11 11 10 9 8 8 9 10 9 9 8 7 6 5 6 6 6 7 6 6 6 6 5 5 6 5 5 6 7 7 8 10 10 7 4 4 8 10 7 4 4 4 4 5
1 7 11 9 2 6 8 8 8 9 9 9 10 11 11 11 10 10 11 12 12 12 12 11 11 11 11 11 10 11 10 9 9 9 10 9 8 8 9 9 9 10 10 10 10 10 9 8 8 8 8 8 8 8 7 6 6 6 6 6 6 6 5 5 5 5 5 6 5 5 5 6 6 7 7 8 13 12 9 9 9 12 13 13 13 10 5
4 5 11 6 4 7 10 10 9 8 8 9 10 10 10 11 11 11 11 11 12 11 11 11 10 10 10 10 10 10 9 8 8 8 9 9 9 8 8 8 8 9 9 9 9 9 8 8 8 8 8 8 7 7 6 6 5 6 5 5 5 6 6 6 4 4 5 5 5 5 4 4 5 5 6 7 7 10 11 10 11 12 12 12 12 11 10
5 8 9 5 8 11 10 10 8 7 7 8 9 10 11 11 11 10 11 10 10 11 10 10 10 8 9 10 10 9 8 8 7 8 8 8 7 8 8 8 8 8 7 7 6 7 7 7 8 7 8 7 7 7 6 6 6 6 6 5 6 6 5 4 4 4 4 4 4 4 5 5 4 4 5 5 6 6 6 8 11 12 12 12 11 10 10
9 10 9 9 11 10 10 10 8 8 8 9 10 10 10 10 11 11 11 10 9 9 10 9 9 9 8 9 8 9 9 9 9 8 8 7 7 7 7 8 7 6 6 6 6 6 7 7 7 7 7 7 6 6 6 6 5 5 5 6 5 4 4 4 4 4 4 3 3 3 3 3 3 4 4 5 5 6 6 5 6 7 9 10 8 8 10
10 11 13 12 11 10 9 8 9 9 10 10 10 11 11 11 11 10 10 9 9 9 9 9 9 8 8 8 9 8 9 9 8 6 6 6 6 6 6 6 6 6 6 6 6 6 5 5 6 6 7 6 5 5 5 5 5 5 4 5 6 6 5 3 3 3 3 3 3 3 3 3 3 3 4 4 5 4 4 4 4 4 4 4 6 8 4
10 10 11 12 12 12 10 9 11 10 10 10 11 11 11 10 10 11 11 10 9 9 8 8 9 9 8 8 9 9 9 8 6 6 5 5 4 4 4 4 4 4 5 5 5 4 4 4 5 6 6 5 4 4 5 5 4 4 4 3 3 4 4 4 3 3 2 2 2 2 2 3 2 3 3 3 3 3 3 4 5 5 4 4 4 5 6
10 9 2 3 10 11 9 11 10 10 10 10 10 10 11 11 11 10 10 10 10 9 8 7 7 6 7 6 6 7 7 7 6 6 5 4 3 4 3 3 3 3 3 4 4 3 2 3 3 4 5 5 4 4 4 4 4 4 3 2 2 2 3 2 2 3 3 3 2 2 2 2 2 2 2 2 2 2 3 3 4 4 4 5 5 3 2
10 7 5 9 13 13 14 13 12 12 11 11 12 11 11 12 11 10 10 10 9 8 8 8 7 6 6 6 5 5 5 6 6 4 4 3 3 2 1 2 2 2 2 2 2 2 2 2 2 3 3 3 4 3 3 4 4 4 4 4 4 3 3 3 3 3 3 4 4 3 2 2 1 2 2 2 2 2 2 3 2 3 5 5 5 4 5
9 8 9 11 14 14 14 13 12 12 12 12 12 12 11 11 11 10 10 9 8 9 8 8 8 8 8 7 7 6 6 5 5 5 4 4 4 4 3 2 0 2 3 2 2 2 1 1 2 2 2 2 3 3 3 2 2 2 2 3 5 5 4 5 4 1 3 3 3 1 1 1 1 1 0 1 3 3 3 3 3 4 3 4 5 4 4
13 11 11 11 13 14 13 12 12 12 12 12 12 13 12 12 12 11 10 9 8 9 9 9 8 8 7 6 6 6 5 5 5 4 4 4 4 4 4 4 5 4 4 3 3 2 2 2 3 3 3 3 2 1 1 1 1 0 2 1 1 3 3 5 2 1 1 1 1 1 1 0 1 0 1 2 2 2 3 3 4 4 3 3 4 4 3
13 12 11 12 12 13 12 12 13 14 14 13 11 11 10 10 10 10 10 9 9 9 8 8 7 8 7 7 6 6 5 4 4 3 3 3 3 3 3 3 4 4 4 3 3 2 3 2 2 2 2 3 3 3 2 1 2 3 2 2 0 2 2 3 4 0 2 1 2 1 1 1 0 1 1 0 0 1 2 2 3 3 3 3 3 1 3
15 14 15 17 16 15 16 15 13 13 12 11 11 11 11 11 10 10 10 10 10 10 9 9 9 8 7 7 6 5 4 4 3 3 3 3 2 2 3 3 3 3 3 2 2 2 3 3 2 2 2 1 1 2 3 3 3 3 2 2 3 2 2 4 4 2 1 2 0 2 1 1 2 2 1 1 1 1 1 2 2 3 3 3 2 2 6
14 12 15 17 16 16 17 16 15 14 14 13 12 11 11 11 11 11 11 11 11 10 9 9 8 7 7 6 5 4 3 3 2 2 2 2 2 2 2 2 2 2 2 2 1 2 2 3 3 3 2 1 2 1 2 3 2 2 2 3 3 3 3 3 3 3 3 2 2 3 3 3 3 1 1 3 2 1 2 3 3 3 3 3 2 1 3
11 8 9 12 12 13 16 15 15 16 14 13 13 13 12 12 13 13 12 11 10 9 9 9 8 7 7 6 5 4 4 3 3 3 3 2 2 2 2 2 3 4 3 2 1 1 1 3 6 6 5 4 3 4 6 6 3 3 3 3 3 2 2 3 4 3 3 3 4 4 4 1 2 4 4 4 4 4 5 4 4 4 4 5 4 3 2
9 8 9 11 11 13 15 13 13 14 13 13 13 12 13 13 14 13 11 10 10 10 9 9 8 8 7 6 4 4 3 4 3 3 3 3 2 2 2 1 2 2 1 3 2 0 1 3 5 5 4 1 1 4 6 9 5 3 2 3 2 3 3 3 2 3 2 2 4 3 4 5 5 5 5 6 6 6 6 6 6 6 5 6 6 4 3
9 8 10 11 11 13 13 12 12 13 13 14 13 13 13 12 11 11 10 10 10 10 9 9 8 7 6 5 4 4 4 3 4 4 3 3 2 2 2 2 2 3 4 1 2 0 2 3 2 2 1 1 2 2 6 8 8 6 3 3 3 3 3 4 3 3 4 2 2 4 5 5 5 5 5 5 5 6 6 7 6 6 6 7 6 5 5
8 7 8 10 10 12 11 11 12 12 13 14 13 12 12 12 12 11 10 10 10 10 10 9 8 7 7 7 5 5 5 4 4 4 4 3 2 3 2 1 1 2 2 2 1 0 3 3 2 1 1 2 2 1 5 5 7 4 3 3 3 3 3 2 3 3 3 3 5 4 4 5 5 5 5 5 5 5 5 4 5 6 7 7 6 6 5
9 8 9 10 10 10 11 10 11 11 12 13 13 12 11 12 11 11 10 10 10 10 9 9 9 7 7 7 6 5 5 5 5 4 4 4 3 3 3 3 2 2 2 2 1 2 3 3 3 1 1 2 3 3 3 3 5 4 3 3 4 4 4 4 4 5 4 5 4 4 5 5 4 5 6 6 5 5 5 4 5 5 6 6 5 5 5
10 9 9 9 9 10 10 10 10 10 11 12 12 12 12 12 11 11 11 11 11 10 9 9 9 7 7 7 6 6 6 6 5 5 4 4 4 4 4 4 4 3 5 3 1 3 3 3 3 3 1 2 2 5 4 2 4 4 4 4 5 5 5 5 5 5 6 6 6 6 6 6 6 6 6 5 5 5 5 4 4 4 4 5 5 4 4
11 11 10 10 9 9 10 10 10 10 10 10 11 12 13 13 12 12 11 11 11 11 10 9 7 7 7 6 6 6 6 6 5 5 5 4 4 3 4 3 3 2 8 5 3 2 3 3 1 1 2 3 1 7 5 4 4 4 5 5 5 5 6 6 6 6 5 5 6 6 6 5 6 6 6 5 6 5 5 5 5 4 4 3 3 4 3
13 13 12 10 9 10 10 10 11 11 11 10 10 11 11 13 11 11 12 12 12 10 10 8 7 7 7 7 7 7 6 6 6 6 5 4 3 3 3 2 3 3 5 2 2 3 2 1 2 1 5 5 5 5 6 4 3 3 3 4 3 4 5 4 4 4 5 5 5 5 5 5 5 5 5 6 6 5 4 4 4 4 3 3 2 1 1
14 13 12 11 11 10 10 10 10 11 11 10 10 10 11 10 11 12 12 12 11 10 10 9 8 8 8 7 7 6 6 6 6 6 5 5 4 4 3 2 3 6 5 4 4 3 1 2 0 5 3 2 2 5 4 2 2 2 2 2 3 4 3 4 4 3 4 4 4 4 4 5 5 5 5 5 5 5 4 4 4 3 3 3 2 2 0
14 13 13 13 12 10 10 10 11 12 11 10 10 10 11 11 11 12 12 12 11 10 9 9 9 8 8 7 6 5 5 5 5 5 5 5 5 4 6 2 3 5 5 3 3 3 2 1 5 3 2 1 1 5 5 4 4 2 3 3 3 3 3 3 3 4 3 3 4 4 3 4 4 4 4 5 5 5 5 4 4 4 4 3 2 1 1
14 13 13 14 13 11 10 11 10 10 11 11 11 11 10 10 11 11 11 11 11 10 9 9 9 8 7 7 6 5 5 5 5 5 3 1 1 3 5 3 4 3 6 5 3 2 5 8 4 2 2 2 4 6 4 2 2 4 3 4 3 2 3 2 2 3 3 4 4 4 4 4 3 3 2 3 3 3 2 2 4 3 3 3 2 2 1
13 12 12 12 11 11 11 10 11 12 12 11 11 10 10 11 11 10 10 10 10 9 9 8 8 8 7 7 6 6 6 6 5 5 4 3 3 2 6 5 8 7 7 4 1 1 4 5 5 3 2 1 7 4 1 2 1 2 2 2 3 3 3 3 3 3 3 3 3 3 3 4 5 4 3 3 3 3 3 3 4 2 2 0 0 1 1
13 13 12 12 11 12 12 11 11 11 12 11 10 10 11 11 11 10 10 9 9 9 9 8 8 8 8 7 6 6 5 5 6 5 5 5 5 5 6 6 6 7 4 5 6 6 8 6 5 4 2 5 6 2 1 1 1 1 1 2 3 2 3 3 3 2 3 3 3 5 4 3 3 3 4 4 4 3 3 4 4 3 2 2 2 2 2
12 12 11 11 12 13 11 11 11 10 10 10 11 10 12 12 11 11 10 10 10 9 9 8 8 8 8 7 7 6 6 5 4 4 6 5 5 5 7 9 10 8 5 2 3 5 7 6 5 3 3 8 3 1 1 1 0 0 1 1 1 0 2 2 1 2 3 3 3 4 4 4 4 4 4 3 3 3 2 3 3 3 2 1 1 1 3
11 11 10 10 10 11 11 10 10 10 9 10 10 10 12 12 11 10 10 10 10 9 8 8 8 8 7 7 7 6 5 6 3 3 5 4 3 3 4 4 6 4 3 1 3 4 8 7 7 5 5 3 1 1 1 0 1 1 0 2 2 2 2 5 2 3 3 3 3 2 2 3 1 4 3 2 1 2 2 1 3 6 6 5 3 2 2
10 10 9 9 9 9 10 9 9 9 9 10 10 11 12 12 11 11 11 11 10 9 8 8 8 8 8 7 7 7 7 7 6 5 5 5 5 4 4 4 5 5 5 4 3 3 4 4 4 5 4 2 1 1 1 1 0 2 2 1 1 2 3 6 5 1 2 4 3 1 2 1 1 3 4 1 1 3 2 2 2 3 5 3 2 2 3
9 8 8 8 8 8 8 7 8 9 9 10 10 11 12 11 10 10 10 12 10 9 9 9 9 8 8 8 8 7 8 7 7 7 5 5 6 6 6 5 6 6 5 5 4 3 2 3 3 1 2 1 1 2 4 2 2 0 1 1 1 2 0 2 1 1 2 4 4 2 3 3 2 4 3 2 2 2 2 2 1 2 2 3 2 2 3
Wind_Direction
156 171 160 174 195 231 201 197 157 117 132 168 220 249 248 219 212 248 58 315 30 95 68 59 54 15 48 48 44 49 60 102 144 177 165 171 175 175 180 185 192 192 193 190 195 198 198 200 199 192 190 193 193 191 193 190 185 185 182 184 189 191 195 200 202 202 203 206 210 212 216 215 218 226 225 221 217 220 219 226 222 221 223 228 229 230 226
181 184 184 227 324 290 213 159 87 82 104 125 220 230 277 265 259 274 283 258 99 79 80 55 54 46 52 61 59 64 59 56 39 30 150 165 163 162 173 171 175 183 191 187 191 191 198 200 204 202 205 204 202 202 195 191 188 184 182 186 188 191 196 199 200 200 201 205 205 208 210 210 213 220 224 223 221 214 221 225 231 241 242 240 240 234 231
214 209 209 248 280 325 55 109 86 58 33 55 66 300 252 279 264 257 261 234 163 87 86 101 74 65 73 70 69 64 62 74 80 69 66 86 95 94 95 103 120 116 110 111 123 154 183 199 200 206 207 203 202 201 208 204 200 192 191 189 192 195 198 198 194 192 193 195 197 204 208 211 209 215 222 224 224 223 223 225 233 229 233 239 241 244 241
255 237 250 246 260 216 78 89 63 54 50 87 22 324 5 337 301 309 259 220 176 140 133 90 82 76 65 63 64 71 71 85 94 101 80 72 78 79 82 84 84 78 74 70 71 63 45 331 238 219 215 211 206 202 199 195 184 191 206 215 212 206 203 199 194 196 200 197 198 200 208 212 212 213 212 217 220 219 222 221 216 230 231 232 240 247 247
305 283 253 288 270 197 221 127 46 25 95 77 359 2 315 346 23 344 256 243 113 130 128 109 102 93 80 67 62 73 74 65 91 108 94 77 66 71 74 78 84 84 83 69 60 57 58 40 3 319 263 224 223 215 204 195 190 191 192 201 211 217 215 215 205 206 205 205 199 205 203 208 211 209 215 215 214 218 222 229 233 224 229 237 233 236 245
203 219 230 246 255 247 326 85 73 33 26 19 328 348 345 334 340 234 277 221 122 122 119 110 105 88 78 72 66 61 68 85 73 82 104 101 79 77 79 66 63 78 80 83 59 70 70 35 17 349 298 273 243 232 223 201 195 199 197 197 201 203 204 210 207 210 219 212 204 200 200 205 209 212 213 217 217 217 222 221 230 238 241 238 240 246 253
278 170 242 259 257 175 284 94 73 60 59 39 346 353 349 321 303 9 295 132 110 101 92 94 91 87 77 69 66 59 63 73 77 75 66 73 81 70 68 69 53 50 51 59 48 33 42 43 27 3 282 256 241 224 222 217 209 204 199 201 201 196 199 198 196 204 213 214 209 199 199 197 205 215 216 219 221 220 221 223 219 224 235 246 258 260 256
275 261 232 267 6 55 172 105 123 89 111 116 243 164 97 248 299 76 280 117 110 107 107 103 97 92 81 67 49 50 54 55 69 70 68 70 66 65 59 54 48 49 47 45 24 10 334 275 268 253 19 347 296 238 225 223 217 214 211 211 203 200 198 192 184 184 190 206 221 208 198 219 219 214 215 224 224 219 226 222 218 220 217 228 244 270 276
284 314 289 2 172 207 195 192 180 237 320 38 50 90 359 329 351 49 287 133 115 111 111 111 109 104 91 66 49 44 48 58 63 67 63 65 70 75 74 70 60 44 47 38 24 342 316 274 256 256 347 311 3 3 281 231 219 213 210 208 202 196 189 178 182 179 178 180 174 189 202 218 218 224 216 215 216 207 209 207 200 199 211 211 227 249 329
270 282 272 230 226 239 152 84 93 92 108 100 115 112 246 252 16 9 324 96 129 127 136 137 140 137 90 68 50 39 51 61 73 72 71 62 59 58 66 71 67 59 55 46 41 33 41 55 40 31 9 298 219 284 318 318 245 191 184 174 166 179 182 184 178 171 163 165 185 198 210 216 238 222 206 171 210 203 238 211 180 153 160 147 123 72 67
252 260 275 280 289 81 173 131 116 117 131 130 156 191 185 84 80 9 336 298 85 76 104 161 166 170 104 86 59 49 65 65 69 75 68 65 61 59 54 54 55 58 62 58 49 50 49 44 46 62 69 90 113 109 74 246 248 214 192 165 162 129 115 144 148 161 169 173 174 158 165 171 239 248 218 205 189 231 245 235 203 195 231 192 199 170 122
237 271 264 288 22 59 107 115 132 116 117 175 192 356 336 40 87 114 329 304 305 9 322 348 206 207 136 125 101 83 76 75 74 72 69 64 62 61 64 62 60 56 53 53 48 48 48 44 44 53 67 76 71 53 36 18 19 30 74 91 91 128 175 138 124 149 162 160 142 220 204 164 132 218 236 210 192 204 183 212 200 131 164 146 100 86 72
189 252 277 287 121 105 110 88 115 140 167 232 25 36 91 115 82 78 343 63 359 346 1 43 69 51 86 106 115 106 95 86 79 74 72 70 68 69 70 72 73 68 66 66 66 64 65 70 75 74 72 72 69 69 69 60 27 17 43 68 98 104 100 130 164 176 161 136 155 184 175 193 168 150 273 256 185 181 177 172 162 134 165 108 93 94 84
249 245 260 286 99 63 70 104 118 150 196 176 19 62 118 138 142 159 237 82 64 72 65 66 80 100 106 112 108 100 93 88 87 85 84 83 81 78 77 78 79 80 75 73 71 70 70 74 76 84 93 90 86 81 76 68 61 48 47 58 128 142 156 145 158 149 138 156 179 162 174 170 155 154 140 278 211 180 191 157 145 134 120 96 97 94 91
267 254 260 242 253 101 296 120 128 206 280 41 36 108 102 107 142 144 149 140 125 103 100 107 113 106 105 104 99 97 96 92 92 93 91 90 89 86 83 79 79 81 78 69 64 67 70 73 75 80 82 81 77 74 71 71 70 64 72 71 62 61 71 76 63 52 51 79 105 123 120 126 133 98 92 246 217 143 123 111 119 108 93 98 103 103 95
279 251 257 2 27 106 150 232 229 141 61 116 143 138 115 123 137 143 132 130 125 119 121 121 118 115 113 109 107 102 95 95 95 94 96 95 94 93 89 89 87 84 82 79 75 65 58 65 71 68 70 72 67 65 61 52 56 62 69 72 70 69 67 62 58 50 43 40 45 47 92 101 106 121 138 107 81 91 101 97 97 101 102 106 107 102 100
294 5 36 91 121 107 123 91 104 103 127 131 123 132 133 138 133 143 135 129 131 130 130 128 130 124 114 107 102 97 93 91 87 85 86 90 90 86 85 86 90 91 92 91 88 80 70 67 70 74 73 74 69 66 58 46 58 67 75 77 77 75 73 72 72 71 62 50 42 39 45 97 121 116 108 100 96 93 102 108 111 107 103 105 104 105 96
108 70 47 109 112 109 115 106 115 129 135 133 133 132 133 132 140 144 132 136 132 133 134 129 121 114 114 110 106 104 101 95 88 87 87 85 86 86 87 87 87 90 91 91 90 90 87 80 72 69 74 78 77 75 65 58 58 57 61 64 69 73 74 71 70 71 71 64 56 44 42 48 88 91 101 105 104 101 100 104 109 113 117 116 113 109 104
215 129 169 148 117 140 124 119 130 116 128 129 136 129 128 135 140 136 137 136 139 136 134 123 120 116 112 103 99 96 95 91 87 85 82 80 80 80 80 79 81 80 82 84 84 83 81 83 87 86 81 76 75 69 68 71 67 59 65 68 69 73 76 75 69 66 68 70 70 64 57 52 50 49 51 65 89 103 110 107 106 108 112 115 117 119 118
268 93 130 123 116 114 133 144 140 140 133 129 128 122 127 131 136 135 134 136 134 135 127 127 123 118 113 111 110 106 101 98 94 89 87 86 85 81 80 82 84 86 85 85 84 81 81 80 79 80 81 86 96 103 102 98 100 94 84 85 83 82 79 74 76 76 74 68 70 64 42 39 39 34 41 33 44 43 43 63 106 119 124 125 127 127 128
109 114 138 141 146 142 144 142 137 136 136 128 124 123 124 124 128 129 130 132 130 131 123 128 126 120 114 109 107 102 102 101 98 94 93 90 87 85 80 76 78 80 80 80 79 80 79 75 74 73 73 76 79 84 86 87 89 95 98 105 112 109 106 104 95 93 97 95 88 84 68 54 53 40 23 356 36 63 42 22 355 65 109 102 98 113 124
196 188 164 170 175 167 153 150 143 140 135 129 125 125 125 127 127 131 129 127 126 129 132 131 128 123 123 121 118 111 107 107 108 107 102 99 96 92 88 85 83 81 79 81 81 79 76 74 74 75 75 73 70 71 72 80 86 90 95 97 95 94 101 107 110 114 110 106 105 110 109 100 93 79 65 53 14 31 50 15 27 14 4 86 90 113 100
56 122 152 181 359 113 131 141 142 140 138 135 136 133 136 137 136 137 134 129 130 132 134 131 125 124 125 124 122 118 114 109 108 109 110 108 106 103 100 95 88 84 84 83 82 78 75 73 71 69 67 66 69 69 65 68 78 86 85 84 88 93 97 97 87 103 107 101 102 104 106 108 112 108 100 63 51 43 42 42 31 45 57 59 55 44 69
96 133 148 163 169 130 133 139 142 142 144 141 133 130 132 133 137 139 135 136 134 131 131 130 127 127 129 129 123 115 116 117 112 107 104 103 101 103 101 97 94 90 85 81 78 80 81 80 78 73 69 61 58 65 68 72 73 78 85 88 84 89 96 103 96 98 97 97 101 105 101 102 100 107 102 99 80 54 46 47 49 53 55 57 56 59 45
124 134 136 138 121 118 122 131 132 130 139 140 135 133 135 134 135 134 131 130 133 131 130 128 130 133 130 126 123 124 123 121 114 104 101 99 98 99 101 99 97 96 91 85 81 77 77 79 79 76 72 65 58 58 57 62 76 74 73 82 91 93 94 97 96 97 106 101 102 100 107 112 111 110 109 105 102 100 80 72 74 68 58 55 58 56 61
126 125 120 120 117 117 123 126 129 133 134 135 129 128 128 127 126 132 129 131 130 131 128 126 124 124 124 124 128 129 126 122 126 137 130 126 123 116 100 97 98 101 100 94 88 82 79 76 74 73 72 71 61 53 63 64 67 77 79 78 81 87 100 106 97 102 102 100 98 93 74 73 94 114 110 107 107 116 118 120 107 88 82 68 57 65 63
127 127 132 131 132 136 152 144 135 139 135 133 132 131 131 130 135 131 127 128 126 127 127 124 120 120 121 120 123 123 126 130 145 144 132 134 126 119 120 116 107 101 100 95 89 82 82 84 85 79 72 65 63 71 70 66 67 72 87 100 104 92 78 88 115 110 108 107 101 96 108 108 116 114 109 117 136 137 131 128 123 123 126 105 63 30 34
141 151 154 153 158 161 155 135 134 138 138 135 135 135 133 137 136 135 132 128 129 127 129 130 130 131 130 134 134 134 138 142 130 126 129 122 118 111 105 111 119 122 108 101 92 87 80 70 71 76 71 68 67 61 71 79 76 74 71 74 97 113 128 134 119 112 100 102 109 131 129 128 133 115 132 152 148 132 130 130 130 135 132 111 107 87 71
157 155 149 180 154 142 134 132 140 141 139 138 136 136 143 142 138 135 131 128 125 124 119 117 116 119 127 132 139 137 141 134 131 126 114 100 100 110 122 133 134 121 116 119 120 111 93 80 72 69 64 51 52 51 61 62 66 66 60 57 93 103 105 94 109 118 104 106 118 96 125 150 146 149 176 167 141 144 149 145 141 144 131 131 140 134 195
162 145 142 134 136 139 143 148 150 148 147 146 146 150 148 142 137 132 129 130 127 120 115 112 110 105 108 118 120 120 121 123 118 115 113 107 93 80 89 117 142 143 142 125 111 114 108 84 49 52 48 16 30 36 45 69 77 79 72 55 40 32 54 62 114 102 120 120 110 148 156 145 156 214 183 172 181 200 185 160 183 166 153 163 179 165 174
155 150 143 144 146 149 153 151 152 154 152 153 155 152 150 148 138 136 130 124 124 120 119 115 110 108 100 93 84 79 84 94 100 104 105 91 74 61 46 15 272 106 90 80 71 56 56 46 39 41 21 355 5 15 16 45 46 56 92 95 97 70 37 349 348 224 150 144 148 203 109 238 114 230 354 245 199 194 201 200 183 209 192 173 203 195 178
146 147 145 153 155 157 151 154 156 157 158 161 161 157 155 151 147 144 140 141 131 129 128 125 122 114 110 104 104 104 104 101 97 99 103 103 91 73 60 60 66 67 65 58 54 51 61 71 58 41 20 11 354 6 317 353 318 21 65 60 68 128 78 310 215 105 306 207 223 183 99 234 126 85 165 198 187 226 219 220 209 216 218 221 212 212 166
147 150 157 160 162 160 158 162 162 161 165 165 162 154 151 150 149 145 140 137 136 135 133 127 124 121 119 118 113 109 106 108 111 122 126 117 106 94 82 79 75 75 78 73 66 64 46 28 35 40 26 18 358 345 315 280 272 296 304 297 183 95 122 91 7 233 190 218 224 273 220 241 25 214 69 62 337 262 223 216 226 220 228 225 238 198 178
166 173 173 173 171 169 168 169 166 163 165 164 156 155 153 152 149 143 142 145 143 141 136 137 134 134 134 131 125 119 124 135 141 138 129 135 121 112 113 109 106 98 95 95 94 63 66 54 31 14 22 329 101 4 6 331 320 300 281 266 287 260 221 157 180 254 241 241 153 131 252 214 234 259 211 227 262 252 264 260 270 267 238 224 233 141 72
183 182 176 177 179 172 165 164 165 164 164 161 160 158 156 152 152 150 152 152 149 147 145 144 145 148 145 140 138 133 134 117 119 136 137 131 127 122 158 170 158 155 129 119 69 83 56 54 22 359 306 44 9 25 66 359 344 315 329 305 294 273 277 269 255 241 260 246 234 228 203 229 234 190 286 290 263 238 230 250 264 245 251 248 228 169 124
191 181 178 179 181 171 166 167 165 164 164 163 162 159 158 159 156 153 162 159 151 152 152 154 156 158 155 154 156 150 147 137 144 146 147 136 125 145 157 200 200 200 192 177 169 21 334 57 44 1 332 6 358 46 30 358 337 7 0 322 293 281 255 265 272 274 266 271 260 258 259 273 299 272 264 249 244 246 257 249 245 257 264 260 252 230 173
183 170 163 168 173 172 168 165 165 165 164 161 160 160 160 161 161 160 160 157 159 159 158 160 162 164 163 163 163 149 145 147 151 160 145 152 151 180 198 201 205 241 218 231 169 79 301 49 21 327 296 295 23 45 43 13 346 343 314 295 283 274 283 264 257 240 241 269 278 274 278 269 256 262 255 260 265 264 261 258 258 256 262 272 270 265 234
170 165 163 164 168 170 166 164 164 166 163 162 162 163 161 161 159 160 163 160 161 160 162 164 165 162 157 158 159 155 150 148 154 149 154 163 169 193 188 229 216 213 218 133 80 327 51 46 359 287 311 338 350 30 48 25 344 311 295 314 321 309 291 284 273 279 268 245 281 283 274 278 275 266 260 261 263 268 268 267 266 267 268 265 260 248 239
157 160 166 162 163 164 161 160 164 166 165 164 163 162 162 159 159 160 161 161 161 161 165 166 161 161 161 168 168 160 160 161 161 168 167 180 180 229 209 206 277 331 28 60 56 114 64 37 354 350 351 10 352 34 65 29 339 317 325 305 293 288 298 280 295 291 276 294 283 298 303 297 288 286 287 285 283 278 268 269 285 290 275 263 254 245 232
156 160 159 158 161 160 158 158 163 168 170 166 159 157 157 157 158 160 159 160 161 166 168 161 166 167 172 176 172 170 166 170 172 177 181 177 193 219 222 204 194 187 99 74 225 90 47 307 277 228 2 21 8 343 61 39 310 299 290 291 296 289 285 297 285 279 282 281 269 248 265 272 278 289 288 293 285 274 282 276 253 256 274 282 280 263 245
161 160 159 162 157 160 163 162 164 167 167 168 164 154 155 159 159 160 163 161 160 169 169 169 174 173 175 176 176 168 167 175 175 187 179 192 201 215 228 192 156 183 194 215 75 80 47 12 342 286 230 345 38 10 336 17 299 290 289 289 282 284 286 283 289 285 285 284 287 288 286 288 287 275 273 278 289 297 289 279 283 281 277 278 271 258 244
164 160 159 160 161 164 164 163 159 160 163 166 162 157 160 160 164 166 162 158 162 170 171 177 176 171 169 169 168 164 172 174 181 181 184 209 215 217 214 157 125 175 94 104 139 194 195 191 176 291 325 315 307 62 353 308 289 289 287 288 285 280 280 282 278 280 285 286 284 281 282 281 281 283 279 274 279 285 297 299 295 291 290 291 289 281 269
165 164 165 163 161 162 160 160 164 163 159 158 157 160 164 167 165 159 156 159 164 167 170 167 154 158 163 168 167 171 174 174 184 178 190 198 216 242 285 122 171 141 139 211 230 217 218 264 268 63 36 0 15 10 291 277 290 289 287 284 287 286 278 282 293 292 281 282 283 287 291 285 284 285 288 284 280 283 291 292 293 297 303 301 297 301 301
170 169 166 163 163 162 160 159 161 159 159 157 156 155 159 161 160 158 159 161 166 167 169 164 166 168 174 171 176 180 178 181 187 188 198 182 180 185 236 247 172 130 175 212 209 238 165 234 39 74 94 53 30 302 288 288 294 284 281 290 298 290 288 287 282 287 298 300 295 293 297 309 301 291 291 289 279 266 257 274 289 301 325 311 305 320 350
171 170 170 166 158 157 162 164 165 166 157 146 150 158 162 162 164 163 162 163 166 167 169 167 170 172 177 178 187 187 185 181 198 183 198 180 196 177 152 192 189 182 154 230 226 228 233 60 80 80 67 74 255 276 272 272 267 280 298 290 280 284 294 293 296 297 301 299 294 290 296 294 286 292 300 301 314 318 326 328 314 323 321 322 333 329 45
170 171 167 159 159 164 166 163 159 150 143 148 153 161 167 165 164 164 165 165 166 171 173 172 172 177 179 179 179 179 176 188 183 193 220 231 7 109 138 211 177 105 129 203 238 230 102 96 114 144 147 226 265 253 247 252 261 253 243 252 265 275 271 270 280 277 286 288 295 287 275 264 273 286 303 304 308 304 323 335 295 289 291 298 303 352 329
167 166 166 166 164 159 156 153 148 148 150 155 162 166 169 169 166 166 166 167 167 168 169 171 172 175 178 184 179 179 184 178 180 177 197 169 135 146 111 99 102 131 190 213 104 16 75 128 131 146 168 222 272 265 264 248 248 289 299 287 292 277 283 279 278 270 264 258 283 296 313 303 295 294 287 272 265 282 281 282 289 309 316 325 177 119 193
168 168 167 163 158 152 150 149 155 163 169 172 167 159 163 166 168 165 164 165 166 167 168 171 174 175 176 181 183 192 197 191 180 172 191 183 178 170 187 211 160 134 122 114 108 105 105 114 128 149 176 250 248 230 230 228 227 210 231 223 248 244 257 275 265 264 270 261 250 245 246 240 251 264 281 287 286 276 284 280 263 262 280 258 229 205 180
169 166 159 154 151 153 156 161 165 168 172 167 163 163 163 163 164 164 167 168 167 170 175 176 176 175 177 183 187 192 190 202 242 184 167 202 175 174 115 95 117 144 214 210 155 140 135 144 145 155 233 258 255 148 251 110 344 334 263 328 300 292 260 235 272 304 277 282 274 268 270 270 265 259 258 267 277 279 279 274 290 284 278 246 193 225 226
159 152 153 157 160 166 167 169 175 175 165 166 167 160 161 162 167 172 172 173 173 175 176 175 177 176 183 177 191 190 169 181 193 131 150 194 179 197 159 185 156 174 263 166 147 128 137 165 179 194 241 236 165 205 86 318 174 217 65 142 250 235 71 26 50 226 260 256 259 288 272 255 260 42 334 263 285 295 259 254 77 63 5 299 248 243 241
159 163 165 165 169 170 173 177 171 162 165 165 162 159 163 174 175 169 174 173 171 177 181 175 179 178 180 178 182 177 166 181 170 168 181 173 191 170 182 174 141 167 175 196 179 167 154 184 166 170 197 230 168 190 152 110 257 144 193 222 155 281 160 188 234 231 36 354 316 263 262 205 195 198 214 202 176 233 226 231 217 192 213 238 253 247 257
155 155 152 157 162 162 167 166 158 160 161 163 163 165 171 175 170 171 171 173 176 177 179 173 177 176 182 177 182 172 174 182 176 173 191 177 176 174 159 170 172 165 179 196 166 177 170 120 128 182 313 243 184 134 123 179 230 192 119 129 232 199 199 332 315 224 165 205 249 159 192 245 161 189 220 229 222 209 227 245 252 247 233 255 264 280 285